Theta_e
317 317 314 314 315 316 316 316 315 313 313 314 314 314 314 314 314 314 314 314 313 315 316 317 317 316 316 321 321 312 308 309 311 314 315 316 317 319 320 318 318 317 318 316 316 316 314
316 317 317 315 312 315 315 315 316 313 313 313 314 314 313 313 313 313 314 314 313 314 316 317 316 314 319 321 312 309 308 309 312 313 315 315 316 317 318 318 318 319 317 317 316 316 315
307 313 311 318 315 312 315 315 316 315 313 313 313 313 313 313 312 313 313 313 313 314 316 316 315 314 318 318 311 310 308 310 310 313 315 315 316 316 317 319 316 317 319 318 317 316 317
307 308 308 316 317 316 313 313 315 316 315 314 313 313 312 312 311 312 312 313 313 314 316 316 315 315 320 312 309 311 311 312 312 312 314 314 314 316 318 317 318 319 320 323 321 317 317
305 306 307 310 313 317 315 313 314 315 315 314 313 312 312 311 311 311 311 312 314 316 317 316 316 318 319 310 311 311 311 313 313 313 313 313 317 319 317 320 323 322 323 325 324 318 319
305 306 305 307 308 315 316 315 314 314 315 314 313 312 311 310 310 310 311 312 316 317 317 315 316 319 313 315 311 311 311 313 314 316 318 318 319 319 319 321 328 326 325 323 323 320 317
305 304 305 305 307 309 316 316 314 315 314 314 313 312 311 310 310 311 311 319 319 320 319 319 320 318 315 311 311 312 313 313 315 317 319 318 320 322 322 321 320 321 321 322 322 318 318
305 305 305 304 306 306 315 315 315 315 315 314 313 312 311 310 311 311 314 318 318 317 318 318 317 317 316 314 317 314 312 316 316 320 319 320 321 321 320 319 320 320 321 322 322 318 317
305 305 305 305 304 306 307 315 314 314 314 314 313 312 310 311 312 314 317 317 315 315 318 316 316 317 317 315 319 318 314 316 317 319 320 321 320 318 318 319 319 320 321 321 322 320 319
304 304 305 305 304 305 306 309 315 314 314 313 312 311 311 313 313 316 317 315 316 312 315 321 314 317 312 315 317 313 313 316 317 317 317 318 317 317 318 319 319 321 320 320 320 321 326
304 303 304 304 304 304 304 306 313 313 313 313 312 311 312 315 316 317 317 316 314 310 329 316 314 309 311 314 314 314 312 314 317 317 317 319 318 317 318 318 318 319 317 318 319 322 322
304 303 304 303 304 304 303 306 308 314 313 313 313 312 314 316 316 317 315 315 312 316 324 313 313 313 313 312 313 314 314 314 315 317 317 318 314 317 318 314 315 315 317 318 320 323 331
303 303 303 304 304 304 304 305 307 312 312 312 312 314 315 316 315 316 316 314 318 323 308 313 315 312 313 314 315 316 317 316 319 321 320 318 319 315 314 317 315 317 320 333 334 332 329
303 303 303 303 304 304 304 304 307 311 313 311 312 316 315 315 315 316 316 319 320 309 309 312 315 313 313 313 314 316 318 318 317 318 322 325 331 317 315 318 319 318 321 333 334 332 325
302 302 303 302 303 304 304 303 304 311 312 311 313 316 315 315 315 316 319 320 312 309 310 315 314 315 315 314 313 316 317 317 317 318 320 321 322 314 313 314 317 318 321 319 323 320 322
303 303 302 304 303 303 303 303 303 305 312 311 314 314 315 314 316 318 321 316 311 310 311 315 311 314 315 316 314 316 316 316 316 316 317 318 321 314 311 312 312 315 316 321 321 331 320
303 303 302 303 303 303 303 303 304 305 306 307 310 315 312 314 316 318 320 315 313 312 313 314 313 314 315 316 315 315 316 314 314 315 316 317 317 315 312 315 318 314 317 317 318 323 331
303 303 303 304 302 303 303 303 304 303 303 305 306 308 304 311 317 317 318 314 312 312 313 314 316 315 314 315 316 316 316 316 313 314 316 316 317 317 316 313 312 316 317 317 322 318 320
302 303 302 303 302 301 302 303 304 303 303 303 302 303 304 304 316 317 315 314 313 314 313 313 314 314 315 315 316 316 316 313 314 315 316 315 317 317 318 316 313 314 315 315 316 316 317
302 303 301 301 301 301 301 302 304 304 303 302 303 305 302 302 303 313 316 316 316 312 314 314 314 314 314 315 315 316 316 312 311 314 311 314 318 314 314 314 315 316 315 315 315 318 318
300 301 300 300 301 300 301 302 303 304 304 302 301 303 301 306 304 305 308 309 314 312 308 308 315 315 317 316 314 314 315 313 311 309 312 317 321 318 316 315 317 318 316 315 315 316 318
300 300 300 300 302 300 299 301 301 303 303 302 303 304 302 302 301 303 305 305 306 304 304 306 309 307 309 311 311 312 314 316 315 309 311 309 318 317 317 318 317 318 317 318 318 318 317
300 299 299 300 301 300 300 300 300 302 302 302 302 302 304 303 305 308 306 305 305 305 302 302 303 304 306 304 304 304 304 305 305 308 308 308 313 315 318 315 313 315 313 314 314 313 310
298 299 300 300 300 300 300 300 301 300 302 301 302 303 305 305 306 304 304 304 304 304 304 301 303 304 302 300 301 302 303 304 304 305 305 308 310 311 314 311 315 307 304 306 307 304 302
300 300 300 298 299 300 300 300 300 300 300 301 302 303 305 306 304 303 303 304 303 303 303 303 302 301 301 302 304 305 305 306 305 304 305 305 308 310 312 313 309 305 303 304 306 303 299
298 299 299 298 298 300 299 300 300 300 301 301 302 301 303 305 304 303 303 303 304 304 304 303 301 301 302 303 303 306 307 304 302 304 303 303 304 307 309 310 312 304 299 300 302 306 301
297 298 298 298 299 300 299 299 300 301 301 300 300 300 303 301 303 302 303 304 303 303 303 302 302 302 302 304 303 303 304 301 302 302 304 305 306 306 307 307 307 302 299 300 303 305 299
298 297 297 297 297 299 298 298 299 299 300 299 299 300 302 301 301 301 301 303 302 303 303 302 302 302 302 304 303 303 303 301 302 301 303 304 304 305 304 304 304 300 298 300 298 296 295
297 298 297 296 296 297 298 299 298 299 299 299 298 298 299 301 300 299 298 298 299 300 302 302 302 302 302 305 303 303 303 302 301 301 301 302 302 301 302 302 302 299 298 297 295 294 294
Wind_Speed
26 24 23 23 22 21 19 18 18 16 14 13 11 11 9 9 9 10 11 11 12 12 11 6 3 3 0 5 1 1 3 1 1 3 5 6 7 6 7 3 4 7 3 3 2 4 4
21 25 28 27 26 26 24 22 21 19 17 15 13 12 11 10 10 11 11 12 13 12 9 4 3 2 4 7 2 0 0 1 1 4 3 5 2 2 5 3 6 3 3 3 4 5 4
28 22 39 33 28 27 26 24 23 21 19 17 14 13 12 11 10 11 12 12 14 13 8 4 2 3 6 4 4 2 3 3 2 2 3 1 1 5 0 2 1 1 5 6 9 8 3
29 31 39 25 29 28 27 29 27 24 21 19 16 14 13 11 11 11 12 13 14 13 7 4 3 3 5 3 4 3 5 3 2 2 3 2 1 2 3 3 3 4 4 6 8 7 4
31 31 33 25 30 37 31 28 28 26 24 21 18 16 14 11 11 11 12 12 12 7 4 3 2 4 3 4 4 5 6 5 5 3 3 3 2 1 4 4 3 6 7 7 5 7 2
20 26 30 34 38 27 34 30 29 28 26 23 20 18 15 12 10 10 10 9 6 2 2 2 4 5 5 3 5 4 4 8 3 7 4 4 4 6 6 7 5 5 7 6 10 5 7
17 19 22 29 33 36 36 34 31 30 27 25 23 19 16 12 10 9 7 1 3 4 7 5 0 2 3 3 4 3 3 6 5 6 7 5 6 10 11 12 11 6 9 12 7 3 4
17 16 16 24 24 32 21 36 34 31 29 27 24 20 16 12 10 9 5 4 2 2 4 9 5 3 1 2 4 6 3 8 7 10 7 4 10 13 1 3 7 9 12 14 11 2 4
18 17 18 17 18 26 28 31 36 34 31 28 25 21 16 12 9 7 7 4 5 3 4 3 4 5 3 7 4 9 7 4 7 11 13 12 2 5 5 7 10 12 14 12 9 5 10
18 19 19 18 16 20 27 21 35 35 33 29 26 22 17 11 5 9 7 10 7 5 4 5 6 5 5 4 6 4 7 4 5 9 11 11 2 6 6 9 9 11 5 8 6 5 5
18 18 19 21 19 18 23 26 17 35 35 31 27 23 21 18 1 9 7 12 9 2 4 6 5 2 4 7 6 5 3 4 10 8 5 4 6 8 11 9 8 2 2 2 2 5 7
17 19 16 19 20 18 20 25 26 31 35 32 28 26 20 15 8 6 14 13 4 4 9 5 5 6 7 6 4 5 5 4 4 5 7 6 1 4 1 5 2 13 7 4 2 1 5
17 16 18 15 18 18 15 23 26 22 36 34 31 28 26 13 8 17 18 6 5 7 3 7 5 7 10 7 8 8 10 10 8 6 11 10 10 4 7 8 6 10 8 3 2 2 5
18 15 16 16 15 17 17 17 30 15 36 35 33 32 28 13 13 23 10 6 10 7 12 4 5 9 8 10 7 10 8 11 18 11 2 8 5 13 12 9 8 15 10 4 6 4 1
19 17 14 16 14 16 15 14 26 6 33 33 33 31 18 18 20 24 8 9 10 9 6 12 9 7 8 8 5 10 12 9 8 16 9 7 5 2 1 1 1 7 7 1 3 7 4
15 16 13 14 12 13 11 11 21 18 15 32 29 17 14 23 22 14 9 18 11 3 4 10 17 15 14 14 11 13 13 7 6 14 12 1 3 1 3 2 1 3 3 3 3 4 7
12 13 13 14 10 12 12 11 9 11 5 3 10 9 15 29 20 7 14 14 18 5 6 6 10 8 10 10 14 10 7 4 6 5 12 5 5 5 4 9 10 5 5 5 2 3 3
11 12 11 12 9 12 11 9 7 6 8 5 4 3 1 18 10 9 14 18 6 12 9 3 2 7 9 10 10 13 12 3 1 9 9 9 3 9 7 2 3 10 12 15 6 7 6
10 11 10 11 9 8 12 9 9 3 1 4 2 1 4 5 8 12 8 20 11 13 14 6 6 6 4 6 6 10 8 4 2 7 7 9 7 5 6 2 3 6 10 10 15 11 19
10 9 8 8 8 6 9 8 7 5 3 5 1 2 2 3 2 5 12 14 16 3 9 8 5 7 6 6 8 4 7 2 3 3 3 1 5 11 11 2 2 4 9 12 15 11 14
10 8 7 7 6 5 5 7 7 5 7 5 1 1 1 2 0 3 3 2 8 3 2 1 5 11 9 6 12 14 9 4 3 3 1 2 6 10 14 14 9 10 12 10 14 17 15
7 5 6 6 7 3 5 9 11 6 9 3 2 1 2 2 2 5 3 2 3 4 3 1 3 3 3 5 2 2 1 5 2 4 1 3 1 1 5 9 9 13 16 16 18 17 20
5 7 7 4 6 5 3 7 11 6 9 3 0 2 1 2 1 3 2 4 4 9 3 4 4 5 5 4 5 7 8 7 4 3 3 1 2 3 17 8 4 9 14 19 19 6 4
11 10 9 7 5 4 3 4 6 7 3 2 2 3 1 2 2 3 9 7 10 2 6 3 4 4 3 6 6 6 6 6 4 3 3 3 1 2 2 4 7 4 5 3 6 9 9
14 12 11 9 6 0 2 3 1 4 9 6 4 2 2 3 8 12 12 9 10 10 4 6 4 6 9 4 3 2 2 2 2 2 4 1 1 2 3 5 2 3 4 4 2 6 5
16 15 14 11 6 3 3 4 6 9 6 13 3 0 1 5 4 14 12 13 10 6 3 4 5 5 2 1 2 2 2 2 4 4 2 5 3 2 3 3 3 4 5 3 4 5 11
16 16 15 13 7 3 4 3 2 5 9 19 2 2 1 3 4 13 5 8 7 5 5 4 5 3 2 1 2 2 3 1 4 3 4 3 3 7 5 2 1 7 5 6 3 4 6
18 16 14 12 9 4 5 4 4 3 8 13 7 6 3 2 4 2 3 8 5 6 7 8 5 1 1 2 1 2 2 3 2 1 4 6 3 3 2 2 6 11 5 4 5 4 1
22 20 14 11 9 7 7 5 2 2 3 8 4 11 1 3 3 4 7 7 6 7 5 8 2 5 3 2 1 2 2 2 2 2 3 3 4 1 4 1 3 15 1 3 1 2 3
Wind_Direction
282 267 261 260 260 256 251 251 250 246 244 251 254 261 267 276 287 296 307 317 326 333 336 326 311 316 170 232 265 222 329 325 148 178 214 210 221 241 239 231 193 236 222 207 184 191 235
298 261 263 258 253 255 253 253 250 245 243 243 251 258 266 274 284 293 304 312 321 324 326 308 305 277 248 252 154 315 25 115 174 220 204 215 277 289 301 271 236 15 232 228 205 213 235
348 337 328 257 255 250 254 249 250 246 242 240 241 251 262 272 282 293 300 308 315 314 304 280 255 264 256 283 166 150 143 165 169 201 199 189 267 235 119 186 47 309 267 220 217 210 246
311 328 337 274 254 256 250 248 245 245 243 240 237 241 253 266 280 290 300 306 309 308 283 248 230 247 273 188 175 149 152 123 114 114 124 128 226 141 301 140 188 246 254 255 115 181 159
302 309 318 342 309 254 248 244 244 246 243 239 237 238 242 255 273 286 295 306 308 300 253 239 243 238 246 167 203 181 165 163 138 120 105 130 227 171 173 219 236 202 272 239 209 195 186
305 299 305 316 322 274 244 242 241 244 244 242 237 237 241 243 257 276 289 305 302 278 209 225 253 249 162 192 150 171 155 161 158 149 141 184 203 221 217 207 236 277 236 244 267 142 215
325 310 292 313 320 328 243 241 238 240 240 240 239 235 236 243 252 265 287 256 213 199 212 230 91 310 140 103 127 200 192 163 163 210 198 191 215 218 222 224 276 282 280 274 274 129 275
314 323 318 312 309 316 267 241 236 235 237 238 238 234 233 235 243 258 245 235 11 48 272 217 233 238 215 179 174 181 190 201 196 208 170 183 235 240 225 254 225 244 262 266 272 204 255
305 314 323 329 323 319 313 245 237 233 233 235 233 232 229 226 241 242 217 194 173 132 252 185 197 214 185 199 229 179 191 235 219 221 205 230 78 92 190 208 220 233 246 263 259 308 241
313 310 311 327 332 327 328 314 237 232 229 229 228 224 219 210 224 200 205 189 170 144 247 234 200 173 165 190 229 148 191 253 220 236 222 250 159 187 194 221 217 257 274 257 266 275 280
304 305 313 315 323 331 320 311 256 232 227 223 220 215 210 192 118 195 159 165 154 143 261 148 153 84 150 198 121 169 182 198 229 188 183 196 179 196 223 240 205 218 80 192 240 259 313
305 299 303 313 319 328 335 320 315 237 221 218 214 208 203 205 225 182 156 147 153 188 236 161 137 165 163 193 171 127 182 233 325 203 232 274 43 212 142 105 172 136 131 111 86 227 252
298 301 295 299 310 324 334 314 304 259 219 212 209 202 199 191 204 176 151 157 178 224 122 172 178 174 200 175 179 186 180 191 187 176 214 204 216 150 164 131 150 191 174 189 222 194 239
295 292 296 292 306 320 329 320 333 244 209 208 202 199 201 199 204 167 155 195 219 224 203 121 140 153 182 163 205 195 190 217 227 248 201 187 234 188 184 224 183 195 201 200 206 206 167
286 294 292 297 297 314 334 325 342 360 203 204 200 195 189 201 183 166 180 206 215 209 161 164 151 178 190 187 202 186 211 222 220 205 216 209 181 84 271 286 231 164 209 323 277 271 269
291 299 298 298 284 308 320 340 348 353 207 204 187 180 190 184 175 177 197 216 218 90 144 180 205 199 190 182 178 193 184 207 221 205 229 254 189 253 108 216 231 276 118 154 202 219 243
281 295 302 302 279 307 320 328 336 344 4 82 187 185 158 172 167 194 205 215 214 171 185 197 234 190 225 174 197 189 184 134 202 183 216 251 242 126 164 207 190 178 206 226 297 216 249
280 290 303 307 282 300 313 322 313 5 346 3 7 117 199 181 174 199 213 208 195 178 189 187 288 241 206 185 192 201 200 179 213 158 173 201 277 226 199 98 303 254 233 217 230 217 219
283 293 304 312 282 288 315 315 294 257 96 52 69 341 338 334 182 188 188 213 207 199 194 193 209 220 221 217 203 206 199 53 31 181 181 163 206 220 180 213 200 230 218 250 238 273 256
292 297 300 306 270 283 319 307 267 254 156 106 95 152 2 12 352 180 183 192 197 286 249 229 232 186 186 230 244 211 188 53 26 61 11 149 243 212 234 270 52 200 225 222 233 240 258
290 293 300 304 252 265 326 303 307 230 163 105 31 54 41 131 195 86 82 67 181 161 39 319 231 226 212 228 231 234 221 142 89 5 83 284 249 252 259 268 275 252 253 230 232 241 251
306 302 328 313 236 273 347 345 300 297 167 97 132 146 73 43 66 108 80 104 127 112 45 146 253 70 181 180 200 166 15 232 237 86 79 355 231 7 255 243 237 254 251 249 249 248 258
345 335 339 330 263 254 278 19 335 307 158 104 50 41 84 104 130 104 98 126 124 137 71 79 83 96 78 87 76 64 67 59 88 125 124 118 162 167 262 267 302 270 242 245 250 284 8
0 356 351 340 311 267 243 337 328 255 193 93 158 140 143 87 109 104 140 129 135 121 122 107 81 87 114 136 117 80 70 71 75 72 36 137 146 136 297 120 221 59 17 247 99 104 105
14 11 3 351 347 16 294 273 340 290 265 221 173 185 149 125 124 128 128 117 109 99 83 96 79 108 152 115 101 108 94 150 128 170 184 261 78 204 238 218 83 175 174 136 151 159 135
11 10 6 360 341 228 309 304 266 253 240 201 174 325 101 131 183 150 136 140 129 113 93 84 84 131 196 120 131 146 148 109 139 133 35 181 263 260 180 242 244 91 131 126 124 199 195
4 4 6 4 1 303 342 303 329 239 194 196 208 85 66 110 125 155 155 166 141 120 104 137 148 157 290 179 136 143 150 107 191 197 165 173 193 231 236 259 224 154 149 153 203 121 171
5 353 352 358 357 319 321 324 251 349 209 182 210 207 29 84 112 91 118 159 145 158 158 140 136 138 141 174 181 159 190 171 194 113 184 196 205 200 211 253 256 161 125 212 93 118 172
6 3 347 339 340 333 311 264 296 198 165 153 101 202 118 68 87 75 88 60 41 33 117 172 48 132 151 160 199 115 155 157 210 214 183 230 234 261 217 35 115 168 40 170 6 267 293